Regional Weather Roundup
Issued by NWS

Home | Current Version | Previous Version | Graphics & Text | Print | Product List | Glossary On
Versions: 1 2 3 4 5 6 7 8 9 10 11 12 13 14 15 16 17 18 19 20 21 22 23 24 25 26 27 28 29 30 31 32 33 34 35 36 37 38 39 40 41 42 43 44 45 46 47 48 49 50
000
ASUS43 KOAX 222002
RWRNE

WEATHER ROUNDUP FOR NEBRASKA
NATIONAL WEATHER SERVICE OMAHA NE
300 PM CDT FRI JUL 22 2016

NOTES: SATELLITE DATA IS BEING USED TO AUGMENT CLOUD COVER ABOVE
       12000 FEET.
       "FAIR" INDICATES FEW OR NO CLOUDS BELOW 12,000 FEET WITH NO
       SIGNIFICANT WEATHER AND/OR OBSTRUCTIONS TO VISIBILITY.

  * THESE STATIONS DO NOT REPORT WEATHER SUCH AS RAIN...SNOW OR FOG.

NEZ001>004-019>022-054>056-222100-
NEBRASKA PANHANDLE

CITY           SKY/WX    TMP DP  RH WIND       PRES   REMARKS
SCOTTSBLUFF    MOSUNNY   95  66  38 E7        30.06F HX  98
ALLIANCE       MOSUNNY   97  60  29 SE15      30.07F HX  97
CHADRON        CLOUDY    99  47  17 SE18      29.99F HX  95
KIMBALL        PTSUNNY   95  54  25 SE13      30.16F HX  92
SIDNEY         MOSUNNY   97  59  28 SE18G25   30.13F HX  96
$$

NEZ057>060-069>072-079>082-222100-
SOUTHWEST NEBRASKA

CITY           SKY/WX    TMP DP  RH WIND       PRES   REMARKS
NORTH PLATTE   SUNNY     96  74  48 SE8       30.02F HX 107
IMPERIAL       MOSUNNY   98  62  30 NE10      30.04F HX  99
LEXINGTON      CLOUDY    95  75  53 SE6       30.00F HX 106
MCCOOK         MOSUNNY  100  68  35 E8        29.99F HX 105
OGALLALA       SUNNY     96  62  31 E7        30.06F HX  97
$$

NEZ005>010-023>029-035>040-094-222100-
NORTH CENTRAL NEBRASKA

CITY           SKY/WX    TMP DP  RH WIND       PRES   REMARKS
VALENTINE      CLOUDY    96  56  26 E13       30.03F HX  94
AINSWORTH      SUNNY     93  71  48 E8        30.03F HX 100
BROKEN BOW     SUNNY     92  76  59 E9        30.01F HX 104
O`NEILL        MOSUNNY   94  74  51 NE12      29.98F HX 104
ORD            SUNNY     96  75  50 E8        29.96F HX 108
THEDFORD       SUNNY     99  61  28 SE16G22   30.04F HX 100
$$

NEZ041-046>049-061>064-073>077-083>087-222100-
SOUTH CENTRAL NEBRASKA

CITY           SKY/WX    TMP DP  RH WIND       PRES   REMARKS
GRAND ISLAND   CLOUDY    97  77  52 S7        29.96F HX 112
AURORA         CLOUDY    93  78  61 S8        29.96F HX 109
HASTINGS       CLOUDY    87  72  60 VRB5      29.99S HX  93
HEBRON         TSTM      78  68  70 S8G21     29.96F
HOLDREGE       PTSUNNY   89  71  55 CALM      29.99F HX  94
KEARNEY *      CLOUDY    95  73  49 SE5       29.99F HX 105
YORK           CLOUDY    90  77  66 S10       29.96F HX 102
$$

NEZ011>018-030>034-042>045-222100-
NORTHEAST NEBRASKA

CITY           SKY/WX    TMP DP  RH WIND       PRES   REMARKS
NORFOLK        MOSUNNY   91  76  61 E9        29.94F HX 103
ALBION         SUNNY     91  77  63 NE6       29.96F HX 105
BLAIR          MOSUNNY   91  79  68 SE9       29.95F HX 107
FREMONT        SUNNY     92  75  59 S14       29.94S HX 103
TEKAMAH        SUNNY     92  77  61 SE9       29.93F HX 105
WAYNE          PTSUNNY   90  80  71 SE8       29.96F HX 107
$$

NEZ050>053-065>068-078-088>093-222100-
SOUTHEAST NEBRASKA

CITY           SKY/WX    TMP DP  RH WIND       PRES   REMARKS
LINCOLN        SUNNY     95  74  50 S18G25    29.94F HX 105
OMAHA EPPLEY   MOSUNNY   94  78  60 S18G24    29.93F HX 110
BEATRICE       CLOUDY    96  73  47 S8        29.96S HX 105
FALLS CITY     SUNNY     95  78  58 S18G24    29.94F HX 111
NEBRASKA CITY  SUNNY     91  80  70 S14G20    29.96S HX 108
PLATTSMOUTH    SUNNY     91  80  71 SE14      29.95F HX 108
$$

NEZ044-045-051>053-067-222100-
OMAHA AREA

CITY           SKY/WX    TMP DP  RH WIND       PRES   REMARKS
OMAHA EPPLEY   MOSUNNY   94  78  60 S18G24    29.93F HX 110
BLAIR          MOSUNNY   91  79  68 SE9       29.95F HX 107
FREMONT        SUNNY     92  75  59 S14       29.94S HX 103
MILLARD        PTSUNNY   92  79  65 S13G18    29.93F HX 109
OFFUTT AFB     MOSUNNY   92  79  66 SE16      29.94F HX 109
PLATTSMOUTH    SUNNY     91  80  71 SE14      29.95F HX 108
WAHOO          FAIR      92  76  58 S14       29.94S HX 104
$$




USA.gov is the U.S. government's official web portal to all federal, state and local government web resources and services.